Погода в Ковалевке

Украина / Винницкая область     49°01′07″N   28°53′20″E
темп.,
°C
ветер,
м/с
пор.,
м/с
влажн.,
%
обл.,
%
осадки,
мм/ч
давл.,
гПа
погр.,
м
4 июля, пн
пн400:00+16св336795 0.8 101839
03:00+15всв22742 0.8 101814
06:00+15вюв22775 0.0 101814
09:00+23в11480 0.0 1017363
12:00+26в32450 0.0 10171474
15:00+30с12313 0.0 10152620
18:00+30св33301 0.0 10142216
21:00+23св33490 0.0 101430
5 июля, вт
вт500:00+20всв22540 0.0 101514
03:00+20ю0153100 0.0 101611
06:00+20сз115722 0.0 101512
09:00+26с334465 0.0 1016407
12:00+30с22352 0.0 10161514
15:00+33ссз24285 0.0 10143002
18:00+32с54265 0.0 10131992
21:00+25ссв4747100 0.0 101499
6 июля, ср
ср600:00+22св465920 0.0 101492
03:00+20в22597 0.0 101316
06:00+20юв225784 0.0 101316
09:00+28ю343496 0.0 1012409
12:00+33юз5623100 0.0 10122594
15:00+34юз6720100 0.0 10103668
18:00+28с6750100 0.1 1011434
21:00+19ссз101595100 6.5 1014590
7 июля, чт
чт700:00+18с51097100 0.0 1015376
03:00+16ссз5793100 0.1 1016430
06:00+15с4695100 0.5 1016438
09:00+17с5583100 0.6 1017568
12:00+22с3360100 0.0 1016945
15:00+24сз5353100 0.0 10151580
18:00+24с555689 0.3 1015890
21:00+17с4888100 1.0 1015151
8 июля, пт
пт800:00+15ссв3891100 0.8 1015157
03:00+15св2592100 1.2 1016134
06:00+16св4894100 1.3 1015224
09:00+18ссв368670 1.3 1016374
12:00+23св565657 0.1 1015981
15:00+26св555183 0.3 10141681
18:00+26ссв6650100 0.1 10141352
21:00+21ссв4973100 2.3 1015249